Regional Weather Roundup
Issued by NWS Sioux Falls, SD

Home | Current Version | Previous Version | Text Only | Print | Product List | Glossary On
Versions: 1 2 3 4 5 6 7 8 9 10 11 12 13 14 15 16 17 18 19 20 21 22 23 24 25 26 27 28 29 30 31 32 33 34 35 36 37 38 39 40 41 42 43 44 45 46 47 48 49 50
000
ASUS43 KFSD 161710
RWRFSD

WEATHER ROUNDUP FOR SE SOUTH DAKOTA/SW MINNESOTA/NW IOWA
NATIONAL WEATHER SERVICE SIOUX FALLS SD
1100 AM CST TUE JAN 16 2018

NOTE: "FAIR" INDICATES FEW OR NO CLOUDS BELOW 12,000 FEET WITH NO
SIGNIFICANT WEATHER AND OR OBSTRUCTIONS TO VISIBILITY.


SDZ038>040-050-052>070-161800-
SOUTHEAST SOUTH DAKOTA

CITY           SKY/WX    TMP DP  RH WIND       PRES   REMARKS
BROOKINGS      CLOUDY    -4 -10  75 MISG        N/A
CHAMBERLAIN    SUNNY      0  -9  65 SW7       30.73F WCI -13
HURON          SUNNY     -3 -12  65 W5        30.77S WCI -13
MADISON        FAIR      -4  -8  84 NW8       30.68F WCI -19
MITCHELL       SUNNY     -4 -10  75 W7        30.78F WCI -18
SIOUX FALLS    PTSUNNY   -3  -9  75 NW8       30.73S WCI -18
WINNER         FAIR       2 -10  57 SW6       30.68F WCI  -9
YANKTON        SUNNY     -1  -8  72 NW15      30.79R WCI -21
$$

MNZ071-072-080-081-089-090-097-098-161800-
SOUTHWEST MINNESOTA

CITY           SKY/WX    TMP DP  RH WIND       PRES   REMARKS
FAIRMONT       CLOUDY    -3  -9  75 NW13      30.71S WCI -22
JACKSON        SUNNY     -4  -9  77 NW9       30.68S WCI -20
LUVERNE        MOSUNNY   -2  -8  78 NW7       30.72S WCI -16
MARSHALL       CLOUDY    -5 -11  75 NW12      30.73F WCI -23
MONTEVIDEO     CLOUDY     0  -8  71 N6        30.74S WCI -12
PIPESTONE      SUNNY     -2  -8  78 NW8       30.66S WCI -17
REDWOOD FALLS  CLOUDY    -4 -11  72 NW9       30.73S WCI -20
WINDOM         PTSUNNY   -6 -18  54 NW10      30.68S WCI -23
WORTHINGTON    CLOUDY    -1  -8  72 NW9       30.68S WCI -16
$$

IAZ001>003-012>014-020>022-031-032-NEZ013-014-SDZ071-161800-
NORTHWEST IOWA

CITY           SKY/WX    TMP DP  RH WIND       PRES   REMARKS
CHEROKEE       CLOUDY     1  -6  74 N12       30.74F WCI -16
DENISON        SUNNY      1  -6  71 NW12      30.75R WCI -15
ESTHERVILLE    CLOUDY    -4  -8  83 N15       30.69S FOG     WCI -25
LE MARS        PTSUNNY   -2  -8  78 NW9       30.76F WCI -18
ORANGE CITY    MOSUNNY    0  -6  78 NW9       30.71F WCI -16
SHELDON        FLURRIES  -2  -8  78 NW9       30.70S WCI -18
SIOUX CITY     PTSUNNY   -1  -8  72 NW15      30.79R WCI -21
SPENCER        CLOUDY    -1  -9  68 N12       30.71S WCI -18
STORM LAKE     SUNNY     -2  -8  78 NW16      30.69F WCI -23
$$

ABBREVIATIONS USED IN REMARKS
   TC - TEMPERATURE IN CELSIUS
  WCI - WIND CHILL INDEX
   HX - HEAT INDEX
  VSB - VISIBILITY





USA.gov is the U.S. government's official web portal to all federal, state and local government web resources and services.